Regional Weather Roundup
Issued by NWS Newport/Morehead, NC

Current Version | Previous Version | Text Only | Print | Product List | Glossary On
Versions: 1 2 3 4 5 6 7 8 9 10 11 12 13 14 15 16 17 18 19 20 21 22 23 24 25 26 27 28 29 30 31 32 33 34 35 36 37 38 39 40 41 42 43 44 45 46 47 48 49 50
440 ASUS42 KMHX 231725 RWRMHX WEATHER ROUNDUP FOR EASTERN NORTH CAROLINA NATIONAL WEATHER SERVICE NEWPORT/MOREHEAD CITY NC 100 PM EDT TUE AUG 23 2016 NOTE: "FAIR" INDICATES FEW OR NO CLOUDS BELOW 12,000 FEET WITH NO SIGNIFICANT WEATHER AND/OR OBSTRUCTIONS TO VISIBILITY NCZ015>017-031-032-045>047-102-103-231800- NORTH COAST CITY SKY/WX TMP DP RH WIND PRES REMARKS EDENTON CLOUDY 81 64 55 E6 30.32S ELIZABETH CITY CLOUDY 80 60 50 NE13 30.31F KITTY HAWK SUNNY 85 66 52 NE5 30.30S MANTEO SUNNY 80 61 52 NE12 30.31S $$ NCZ045>047-081-094-103-104-231800- CENTRAL COAST CITY SKY/WX TMP DP RH WIND PRES REMARKS FRISCO MOSUNNY 82 61 48 NE8G20 30.29S $$ NCZ095-097-098-100-101-231800- SOUTHERN COAST CITY SKY/WX TMP DP RH WIND PRES REMARKS BEAUFORT MOSUNNY 84 66 54 E12G20 30.28F CEDAR ISLAND NOT AVBL JACKSONVILLE MOSUNNY 85 61 44 NE12G20 30.28S PINEY ISLAND NOT AVBL WILMINGTON PTSUNNY 84 65 52 E8 30.28S $$ NCZ011>013-027>030-043-044-078>080-089-090>093-098-231800- COASTAL PLAIN CITY SKY/WX TMP DP RH WIND PRES REMARKS AHOSKIE SUNNY 82 62 50 SE5 30.31F CLINTON PTSUNNY 82 69 65 N3 30.30S ELIZABETHTOWN PTSUNNY 85 66 52 CALM 30.28S GOLDSBORO SUNNY 85 62 45 VRB3 30.28F GREENVILLE MOSUNNY 86 59 39 N5 30.30F HAVELOCK MOSUNNY 86 62 44 E14 30.30S KENANSVILLE NOT AVBL KINSTON MOSUNNY 86 61 42 N7 30.30F NEW BERN MOSUNNY 85 63 47 N9 30.30F RICHLANDS MOSUNNY 84 63 49 N7 30.30S ROCKY MOUNT PTSUNNY 87 61 41 MISG 30.31F WASHINGTON PTSUNNY 80 66 61 NE6 30.30F WHITEVILLE MOSUNNY 86 63 45 SE5 30.28R $$ AMZ130-135-150-152-154-156-158-170-250-252-270-ANZ085-086-088-633-658-670-231800- MARINE OBSERVATIONS STATION/POSITION TIME TEMP WIND PRES WAVE SWELL AIR SEA DIR/SP/G HT/PER HT/PER (UTC) (F) (DEG/KT/KT) (MB) (FT/S) (FT/S) CHESAPEAKE LIGHT NOT AVBL 64 E VA BEACH 1650 77 81 20/ 14/ 17 1025.6 3/ 5 2/ 8 DUCK 1700 78 77 40/ 12/ 14 1026.0 2 E DUCK 1641 78 N/A 3/ 5 OREGON INLET 1700 79 78 20/ 11/ 15 1026.0 13E OREGON INLT 1700 78 N/A 3/ 4 2/ 6 HATTERAS CG 1700 81 80 40/ 10/ 15 1025.4 DIAMOND BUOY 1650 81 85 40/ 16/ 19 1024.9 4/ 8 2/12 CAPE LOOKOUT 1700 82 50/ 14/ 16 1025.1 BEAUFORT LAB 1700 82 82 70/ 8/ 12 1024.9 30 SE NEW RVR IN 1708 82 85 50/ 14/ 16 1025.0 30 SE NEW RVR IN 1655 85 N/A 3/ 4 27 SE WRIGHTSVLE 1708 83 85 50/ 12/ 17 1025.2 5 SE WRIGHTSVLE 1708 83 83 70/ 12/ 17 1026.1 225 S CAPE HAT 1650 83 85 40/ 16/ 19 1022.1 5/ 5 2/11 41 SE CHARLESTON 1650 84 85 50/ 14/ 16 1023.3 2/ 3 2/ 8 $$

USA.gov is the U.S. government's official web portal to all federal, state and local government web resources and services.